Regional Weather Roundup
Issued by NWS San Angelo, TX

Home | Current Version | Previous Version | Text Only | Print | Product List | Glossary On
Versions: 1 2 3 4 5 6 7 8 9 10 11 12 13 14 15 16 17 18 19 20 21 22 23 24 25 26 27 28 29 30 31 32 33 34 35 36 37 38 39 40 41 42 43 44 45 46 47 48 49 50
000
ASUS44 KSJT 311802
RWRSJT
WEST CENTRAL TEXAS REGIONAL WEATHER ROUNDUP
NATIONAL WEATHER SERVICE SAN ANGELO TX
100 PM CDT FRI JUL 31 2015

NOTE: "FAIR" INDICATES FEW OR NO CLOUDS BELOW 12,000 FEET WITH NO
SIGNIFICANT WEATHER AND/OR OBSTRUCTIONS TO VISIBILITY.

TXZ049-054-064>066-071>073-076>078-098-099-113-114-127-128-139-140-
154-155-168>170-311900
...LOCATIONS ACROSS WEST CENTRAL TEXAS...

CITY           SKY/WX    TMP DP  RH WIND       PRES   REMARKS
SAN ANGELO     SUNNY     96  61  31 N6        30.12F
ABILENE        SUNNY     98  61  29 W6        30.12F
DYESS AFB      SUNNY     98  62  30 N8        30.11F
JUNCTION       MOSUNNY   96  62  32 VRB5      30.09F
SWEETWATER     NOT AVBL
BROWNWOOD      NOT AVBL
COLEMAN        NOT AVBL
SONORA         NOT AVBL
OZONA          NOT AVBL
BRADY          NOT AVBL
$$

TEXAS PANHANDLE/OKLAHOMA PANHANDLE

CITY           SKY/WX    TMP DP  RH WIND       PRES   REMARKS
AMARILLO       CLOUDY    73  65  75 N9        30.29F
BORGER         CLOUDY    70  68  93 NE6       30.27F
CANADIAN       NOT AVBL
DALHART        CLOUDY    74  66  76 NE7       30.30F
DUMAS          LGT RAIN  70  66  87 NE6       30.29F
GUYMON         NOT AVBL
HEREFORD       NOT AVBL
PAMPA          CLOUDY    70  67  92 N10       30.29F
PERRYTON       NOT AVBL
$$

SOUTHERN PANHANDLE/SOUTH PLAINS/ROLLING PLAINS

CITY           SKY/WX    TMP DP  RH WIND       PRES   REMARKS
LUBBOCK        PTSUNNY   90  68  48 NE10G17   30.23F
SNYDER         NOT AVBL
CHILDRESS      PTSUNNY   88  71  57 N12       30.17F
SEMINOLE       CLEAR     93  50  23 CALM      30.23F
$$

PERMIAN BASIN

CITY           SKY/WX    TMP DP  RH WIND       PRES   REMARKS
MIDLAND        SUNNY     94  54  25 SE9       30.18F
ODESSA         SUNNY     94  52  24 CALM      30.20F
WINK           SUNNY     95  52  23 VRB7      30.16F
$$

FAR WEST/SOUTHWEST MOUNTAINS/TRANS PECOS

CITY           SKY/WX    TMP DP  RH WIND       PRES   REMARKS
ALPINE         NOT AVBL
DRYDEN           N/A     97  58  27 VRB7      30.11F
EL PASO        MOSUNNY   87  61  41 NE5       30.22F
FORT STOCKTON  SUNNY     94  55  26 E13G22    30.18F
GUADALUPE PASS SUNNY     81  56  42 E18       30.37F
MARFA          PTSUNNY   84  52  32 SE8G16    30.30F
PECOS          NOT AVBL
$$

DALLAS/FORT WORTH METROPLEX

CITY           SKY/WX    TMP DP  RH WIND       PRES   REMARKS
DFW AIRPORT    MOSUNNY   93  69  45 VRB5      30.07F
FTW MEACHAM    SUNNY     96  71  44 NE9       30.06F
DAL-EXECUTIVE  SUNNY     94  68  42 E9        30.07F
GRAND PRAIRIE  SUNNY     91  72  52 NE9       30.08F
ADDISON        SUNNY     91  66  43 E7        30.10S
MESQUITE       CLEAR     93  66  40 NE7       30.08F
LANCASTER        N/A     93  67  41 NE7       30.08S HAZE
$$

NORTH CENTRAL TEXAS

CITY           SKY/WX    TMP DP  RH WIND       PRES   REMARKS
SHRMAN/DENISON NOT AVBL
GAINESVILLE    NOT AVBL
BRIDGEPORT     NOT AVBL
DENTON         SUNNY     92  71  50 NE6       30.08F
WAXAHACHIE     CLEAR     93  71  48 CALM      30.08F
GRANBURY       NOT AVBL
$$

WESTERN NORTH TEXAS

CITY           SKY/WX    TMP DP  RH WIND       PRES   REMARKS
WICHITA FALLS  MOSUNNY   93  72  50 MISG      30.09F
VERNON         CLEAR     94  64  37 NE6       30.11F
BRECKENRIDGE   NOT AVBL
COMANCHE       SUNNY     97  65  34 NE7       30.09F
$$

CENTRAL AND SOUTH CENTRAL TEXAS

CITY           SKY/WX    TMP DP  RH WIND       PRES   REMARKS
AUSTIN/BERGSTM MOSUNNY   97  69  40 N12       30.02F
WACO           SUNNY     98  71  41 VRB7      30.04F
HILLSBORO      NOT AVBL
TEMPLE         SUNNY     99  70  39 E7        30.05F
KILLEEN-GRAY   SUNNY     97  66  36 NE7       30.05F
FORT HOOD      SUNNY     97  67  37 N9        30.04F
GEORGETOWN     SUNNY     99  66  34 N13G20    30.03F
LAGO VISTA     FAIR      98  63  31 NE9       30.07F
SAN MARCOS     SUNNY     97  70  41 E3        30.03F
NEW BRAUNFELS  MOSUNNY  100  68  35 VRB7      30.02F
RANDOLPH AFB   MOSUNNY   95  67  39 VRB7      30.03F
SAN ANTONIO    PTSUNNY   95  67  39 E9        30.04F
STINSON        SUNNY     96  68  39 E8        30.01F
PLEASANTON     NOT AVBL
LA GRANGE      SUNNY     97  74  48 NE5       29.99F
GIDDINGS       NOT AVBL
$$

EAST TEXAS

CITY           SKY/WX    TMP DP  RH WIND       PRES   REMARKS
PARIS          SUNNY     90  61  37 NE9G17    30.11F
CLARKSVILLE    NOT AVBL
TYLER          SUNNY     93  63  36 NE8       30.07F
LONGVIEW       SUNNY     92  62  36 E8        30.07F
PALESTINE      CLEAR     91  71  51 NE7G17    30.06F
NACOGDOCHES    SUNNY     91  64  40 NE8       30.05F
$$

TEXAS HILL COUNTRY AND EDWARDS PLATEAU

CITY           SKY/WX    TMP DP  RH WIND       PRES   REMARKS
LLANO          NOT AVBL
HORSESHOE BAY  FAIR      97  64  32 NE8       30.06F
KERRVILLE      NOT AVBL
FREDERICKSBRG  NOT AVBL
ROCKSPRINGS    NOT AVBL
HONDO          MOSUNNY   97  68  38 MISG      30.06F
UVALDE         PTCLDY    94  70  45 S5        30.05F
DEL RIO        SUNNY     97  64  33 SE7       30.04F
$$

SOUTHEAST TEXAS

CITY           SKY/WX    TMP DP  RH WIND       PRES   REMARKS
COLLEGE STN    MOSUNNY   95  73  48 NE9       30.02F
CALDWELL       NOT AVBL
CROCKETT       NOT AVBL
BRENHAM        MOSUNNY   94  76  55 NE6       30.02F
HUNTSVILLE     MOSUNNY   92  73  53 E6        30.04F
CONROE         SUNNY     95  71  45 N8        30.02F
HOUSTON BUSH   MOSUNNY   95  74  50 NE9G17    30.00F
HOUSTON HOBBY  MOSUNNY   96  73  47 NE12      29.98F
PERLAND        MOSUNNY   95  74  50 N8G17     30.00F
WHARTON        CLEAR     95  74  50 N5        29.98F
$$

THE UPPER TEXAS COAST

CITY           SKY/WX    TMP DP  RH WIND       PRES   REMARKS
ORANGE         CLEAR     93  61  34 NE6       30.01S
PORT ARTHUR    SUNNY     95  75  52 VRB7G17   29.98F
GALVESTON      SUNNY     93  77  59 N10       30.00F
ANGLETON       MOSUNNY   97  74  47 NE9       29.98F
BAY CITY       PTCLDY    96  71  43 NW5       29.97F
$$

TEXAS COASTAL BEND, RIO GRANDE PLAINS DEEP SOUTH TEXAS

CITY           SKY/WX    TMP DP  RH WIND       PRES   REMARKS
VICTORIA       SUNNY     96  71  44 VRB3      30.00F
BEEVILLE       FAIR      94  75  53 NE3       30.01F
ROCKPORT       SUNNY     95  70  44 NW6       29.98F
PORT ARANSAS   PTCLDY    89  76  65 SE6       30.00S
PORT LAVACA    CLEAR     96  72  45 NW9       29.99F
CORPUS CHRISTI PTSUNNY   96  67  38 VRB5      29.99F
KINGSVILLE NAS PTSUNNY   95  73  48 SE3       30.00F
COTULLA        MOSUNNY   98  68  37 E8        30.02F
LAREDO         SUNNY     99  67  35 E9        30.02F
BROWNSVILLE    CLOUDY    89  70  53 VRB3      30.01F
PORT ISABEL    CLOUDY    87  72  60 E6        30.01S
HEBBRONVILLE   NOT AVBL
MCALLEN        CLOUDY    95  70  44 VRB6      30.01F
WESLACO        NOT AVBL
FALFURRIAS     MOCLDY    90  68  49 CALM      30.01S
EDINBURG       CLOUDY    92  67  44 CALM      30.02S
$$


USA.gov is the U.S. government's official web portal to all federal, state and local government web resources and services.